• In Deutschland
  • Länderverzeichnis
  • Für 7 Tage
  • Wassertemperatur
  • Satellitenkarten
  • Wetterkarte
  • Widgets
  • user-avatar
    Anmelden

    Stündliche Wetter Useldange

    Heute, 16 Juli, Montag

    Zeit Temperatur Niederschläge Wind Luftdruck Luftfeuchtigkeit
    00:00 +18°C° 0 mm 1 m/S 735 mmHg 80%
    01:00 +16°C° 0 mm 1 m/S 735 mmHg 81%
    02:00 +15°C° 0 mm 0 m/S 735 mmHg 82%
    03:00 +14°C° 0 mm 0 m/S 735 mmHg 84%
    04:00 +16°C° 0 mm 0 m/S 735 mmHg 82%
    05:00 +17°C° 0 mm 0 m/S 735 mmHg 80%
    06:00 +18°C° 0 mm 0 m/S 735 mmHg 78%
    07:00 +20°C° 0 mm 0 m/S 735 mmHg 71%
    08:00 +22°C° 0 mm 0 m/S 735 mmHg 65%
    09:00 +24°C° 0 mm 0 m/S 735 mmHg 58%
    10:00 +27°C° 0 mm 1 m/S 735 mmHg 53%
    11:00 +28°C° 0 mm 1 m/S 735 mmHg 48%
    12:00 +28°C° 0 mm 1 m/S 735 mmHg 43%
    13:00 +28°C° 0 mm 1 m/S 735 mmHg 44%
    14:00 +28°C° 0 mm 1 m/S 734 mmHg 44%
    15:00 +28°C° 0 mm 2 m/S 734 mmHg 45%
    16:00 +27°C° 0 mm 2 m/S 734 mmHg 51%
    17:00 +26°C° 0 mm 1 m/S 734 mmHg 57%
    18:00 +25°C° 0 mm 1 m/S 734 mmHg 63%
    19:00 +24°C° 0 mm 1 m/S 734 mmHg 64%
    20:00 +22°C° 0 mm 1 m/S 734 mmHg 65%
    21:00 +20°C° 0 mm 1 m/S 735 mmHg 66%
    22:00 +20°C° 0 mm 1 m/S 735 mmHg 68%
    23:00 +19°C° 0 mm 1 m/S 735 mmHg 70%

    Morgen, 17 Juli, Dienstag

    Zeit Temperatur Niederschläge Wind Luftdruck Luftfeuchtigkeit
    00:00 +18°C° 0 mm 1 m/S 735 mmHg 72%
    01:00 +18°C° 0 mm 1 m/S 735 mmHg 74%
    02:00 +18°C° 0 mm 1 m/S 735 mmHg 75%
    03:00 +16°C° 0 mm 1 m/S 735 mmHg 77%
    04:00 +18°C° 0 mm 1 m/S 735 mmHg 77%
    05:00 +19°C° 0 mm 1 m/S 735 mmHg 77%
    06:00 +20°C° 0 mm 1 m/S 736 mmHg 77%
    07:00 +21°C° 0 mm 1 m/S 736 mmHg 72%
    08:00 +23°C° 0 mm 2 m/S 736 mmHg 67%
    09:00 +25°C° 0 mm 2 m/S 736 mmHg 61%
    10:00 +25°C° 0,3 mm 3 m/S 736 mmHg 62%
    11:00 +25°C° 0,3 mm 3 m/S 736 mmHg 62%
    12:00 +26°C° 0,3 mm 3 m/S 736 mmHg 62%
    13:00 +26°C° 0,6 mm 3 m/S 736 mmHg 64%
    14:00 +26°C° 0,6 mm 3 m/S 736 mmHg 66%
    15:00 +25°C° 0,6 mm 3 m/S 736 mmHg 68%
    16:00 +24°C° 0,4 mm 3 m/S 736 mmHg 73%
    17:00 +22°C° 0,4 mm 3 m/S 736 mmHg 78%
    18:00 +21°C° 0,4 mm 2 m/S 736 mmHg 84%
    19:00 +20°C° 0 mm 2 m/S 736 mmHg 87%
    20:00 +18°C° 0 mm 2 m/S 737 mmHg 90%
    21:00 +17°C° 0 mm 2 m/S 737 mmHg 93%
    22:00 +16°C° 0 mm 2 m/S 737 mmHg 93%
    23:00 +15°C° 0 mm 1 m/S 737 mmHg 93%

    übermorgen, 18 Juli, Mittwoch

    Zeit Temperatur Niederschläge Wind Luftdruck Luftfeuchtigkeit
    00:00 +14°C° 0 mm 1 m/S 737 mmHg 93%
    01:00 +14°C° 0 mm 1 m/S 737 mmHg 93%
    02:00 +13°C° 0 mm 1 m/S 737 mmHg 94%
    03:00 +13°C° 0 mm 1 m/S 737 mmHg 94%
    04:00 +14°C° 0 mm 1 m/S 737 mmHg 92%
    05:00 +15°C° 0 mm 1 m/S 738 mmHg 90%
    06:00 +15°C° 0 mm 0 m/S 738 mmHg 88%
    07:00 +19°C° 0 mm 1 m/S 738 mmHg 79%
    08:00 +20°C° 0 mm 1 m/S 738 mmHg 70%
    09:00 +22°C° 0 mm 1 m/S 738 mmHg 62%
    10:00 +23°C° 0 mm 1 m/S 738 mmHg 58%
    11:00 +24°C° 0 mm 1 m/S 738 mmHg 55%
    12:00 +25°C° 0 mm 1 m/S 738 mmHg 51%
    13:00 +25°C° 0 mm 1 m/S 738 mmHg 51%
    14:00 +25°C° 0 mm 1 m/S 738 mmHg 51%
    15:00 +25°C° 0 mm 1 m/S 738 mmHg 51%
    16:00 +25°C° 0 mm 1 m/S 737 mmHg 56%
    17:00 +24°C° 0 mm 1 m/S 737 mmHg 62%
    18:00 +23°C° 0 mm 1 m/S 737 mmHg 67%
    19:00 +22°C° 0 mm 1 m/S 737 mmHg 70%
    20:00 +20°C° 0 mm 1 m/S 738 mmHg 72%
    21:00 +18°C° 0 mm 1 m/S 738 mmHg 75%
    22:00 +18°C° 0 mm 1 m/S 738 mmHg 76%
    23:00 +18°C° 0 mm 1 m/S 738 mmHg 77%

    19 Juli, Donnerstag

    Zeit Temperatur Niederschläge Wind Luftdruck Luftfeuchtigkeit
    00:00 +16°C° 0 mm 1 m/S 738 mmHg 78%
    01:00 +16°C° 0 mm 2 m/S 737 mmHg 79%
    02:00 +16°C° 0 mm 2 m/S 737 mmHg 80%
    03:00 +15°C° 0 mm 2 m/S 737 mmHg 81%
    04:00 +16°C° 0 mm 2 m/S 737 mmHg 80%
    05:00 +17°C° 0 mm 2 m/S 737 mmHg 79%
    06:00 +18°C° 0 mm 2 m/S 737 mmHg 78%
    07:00 +19°C° 0 mm 2 m/S 737 mmHg 73%
    08:00 +21°C° 0 mm 2 m/S 737 mmHg 67%
    09:00 +24°C° 0 mm 3 m/S 737 mmHg 61%
    10:00 +25°C° 0 mm 3 m/S 737 mmHg 59%
    11:00 +25°C° 0 mm 2 m/S 737 mmHg 56%
    12:00 +26°C° 0 mm 2 m/S 737 mmHg 53%
    13:00 +26°C° 0 mm 2 m/S 737 mmHg 54%
    14:00 +26°C° 0 mm 2 m/S 737 mmHg 55%
    15:00 +26°C° 0 mm 2 m/S 736 mmHg 56%
    16:00 +25°C° 0 mm 2 m/S 736 mmHg 61%
    17:00 +25°C° 0 mm 2 m/S 736 mmHg 66%
    18:00 +24°C° 0 mm 2 m/S 736 mmHg 70%
    19:00 +21°C° 0 mm 2 m/S 736 mmHg 72%
    20:00 +20°C° 0 mm 2 m/S 736 mmHg 74%
    21:00 +18°C° 0 mm 3 m/S 736 mmHg 77%
    22:00 +18°C° 0 mm 3 m/S 736 mmHg 75%
    23:00 +18°C° 0 mm 3 m/S 735 mmHg 73%

    20 Juli, Freitag

    Zeit Temperatur Niederschläge Wind Luftdruck Luftfeuchtigkeit
    00:00 +18°C° 0 mm 3 m/S 735 mmHg 72%
    01:00 +17°C° 0 mm 3 m/S 735 mmHg 72%
    02:00 +17°C° 0 mm 3 m/S 735 mmHg 72%
    03:00 +16°C° 0 mm 3 m/S 734 mmHg 72%
    04:00 +17°C° 0 mm 3 m/S 734 mmHg 72%
    05:00 +18°C° 0 mm 3 m/S 734 mmHg 73%
    06:00 +18°C° 0 mm 2 m/S 734 mmHg 73%
    07:00 +20°C° 0,4 mm 3 m/S 734 mmHg 72%
    08:00 +21°C° 0,4 mm 3 m/S 734 mmHg 71%
    09:00 +24°C° 0,4 mm 3 m/S 734 mmHg 69%
    10:00 +24°C° 0,6 mm 3 m/S 734 mmHg 69%
    11:00 +24°C° 0,6 mm 2 m/S 734 mmHg 69%
    12:00 +25°C° 0,6 mm 2 m/S 733 mmHg 69%
    13:00 +25°C° 1 mm 2 m/S 733 mmHg 72%
    14:00 +24°C° 1 mm 2 m/S 733 mmHg 74%
    15:00 +24°C° 1 mm 1 m/S 733 mmHg 77%
    16:00 +23°C° 0,8 mm 1 m/S 733 mmHg 81%
    17:00 +21°C° 0,8 mm 2 m/S 733 mmHg 85%
    18:00 +20°C° 0,8 mm 2 m/S 732 mmHg 89%
    19:00 +19°C° 0,4 mm 2 m/S 733 mmHg 90%
    20:00 +18°C° 0,4 mm 2 m/S 733 mmHg 92%
    21:00 +18°C° 0,4 mm 2 m/S 733 mmHg 93%
    22:00 +18°C° 0,3 mm 2 m/S 733 mmHg 93%
    23:00 +17°C° 0,3 mm 2 m/S 733 mmHg 94%

    21 Juli, Samstag

    Zeit Temperatur Niederschläge Wind Luftdruck Luftfeuchtigkeit
    00:00 +17°C° 0,3 mm 2 m/S 733 mmHg 94%
    01:00 +17°C° 0,3 mm 2 m/S 733 mmHg 95%
    02:00 +17°C° 0,3 mm 2 m/S 733 mmHg 95%
    03:00 +16°C° 0,3 mm 2 m/S 733 mmHg 96%
    04:00 +16°C° 0,4 mm 2 m/S 733 mmHg 96%
    05:00 +16°C° 0,4 mm 2 m/S 734 mmHg 95%
    06:00 +16°C° 0,4 mm 2 m/S 734 mmHg 95%
    07:00 +17°C° 0,6 mm 2 m/S 734 mmHg 92%
    08:00 +17°C° 0,6 mm 3 m/S 734 mmHg 90%
    09:00 +18°C° 0,6 mm 3 m/S 734 mmHg 87%
    10:00 +19°C° 0,2 mm 3 m/S 735 mmHg 80%
    11:00 +21°C° 0,2 mm 4 m/S 735 mmHg 73%
    12:00 +22°C° 0,2 mm 4 m/S 735 mmHg 66%
    13:00 +21°C° 0,3 mm 4 m/S 735 mmHg 71%
    14:00 +20°C° 0,3 mm 4 m/S 735 mmHg 75%
    15:00 +20°C° 0,3 mm 5 m/S 736 mmHg 79%
    16:00 +19°C° 0,5 mm 4 m/S 736 mmHg 84%
    17:00 +17°C° 0,5 mm 3 m/S 736 mmHg 89%
    18:00 +16°C° 0,5 mm 3 m/S 736 mmHg 93%
    19:00 +16°C° 0,1 mm 3 m/S 736 mmHg 94%
    20:00 +15°C° 0,1 mm 2 m/S 737 mmHg 95%
    21:00 +14°C° 0,1 mm 2 m/S 737 mmHg 97%
    22:00 +14°C° 0,1 mm 2 m/S 737 mmHg 97%
    23:00 +14°C° 0,1 mm 2 m/S 737 mmHg 97%
    Mehr zeigen